Radiation Dose at Monitoring Post of Fukushima Daini Nuclear Power Station
Date,Time,MP-1(microSv/h),MP-2(microSv/h),MP-3(microSv/h),MP-4(microSv/h),MP-5(microSv/h),MP-6(microSv/h),MP-7(microSv/h),Wind Direction,Wind Velocity(m/s),Rain
2020/03/30,00:00,0.173,0.157,0.238,0.205,0.221,0.125,0.080,northwest,6.7,No
2020/03/30,00:10,0.174,0.156,0.238,0.206,0.221,0.125,0.080,northwest,6.7,No
2020/03/30,00:20,0.174,0.156,0.238,0.206,0.222,0.125,0.079,north-northwest,6.6,No
2020/03/30,00:30,0.174,0.156,0.238,0.206,0.222,0.125,0.079,northwest,6.5,No
2020/03/30,00:40,0.172,0.155,0.237,0.206,0.222,0.125,0.079,north-northwest,6.5,No
2020/03/30,00:50,0.173,0.156,0.239,0.206,0.222,0.125,0.079,north-northwest,6.4,No
2020/03/30,01:00,0.174,0.155,0.240,0.207,0.222,0.126,0.079,north-northwest,6.5,No
2020/03/30,01:10,0.174,0.156,0.239,0.206,0.223,0.126,0.079,north-northwest,6.3,No
2020/03/30,01:20,0.173,0.156,0.238,0.207,0.224,0.127,0.079,north-northwest,6.4,No
2020/03/30,01:30,0.174,0.156,0.239,0.207,0.222,0.126,0.079,north-northwest,6.8,No
2020/03/30,01:40,0.174,0.156,0.238,0.206,0.222,0.126,0.079,northwest,6.5,No
2020/03/30,01:50,0.174,0.156,0.238,0.207,0.222,0.126,0.079,north-northwest,6.4,No
2020/03/30,02:00,0.174,0.155,0.238,0.207,0.223,0.126,0.080,north-northwest,7.1,No
2020/03/30,02:10,0.174,0.156,0.239,0.207,0.223,0.126,0.079,northwest,7.1,No
2020/03/30,02:20,0.172,0.155,0.238,0.207,0.223,0.125,0.080,northwest,7.1,No
2020/03/30,02:30,0.172,0.156,0.239,0.207,0.222,0.126,0.080,north-northwest,6.8,No
2020/03/30,02:40,0.174,0.156,0.238,0.208,0.223,0.126,0.079,northwest,6.5,No
2020/03/30,02:50,0.174,0.156,0.239,0.207,0.224,0.125,0.080,northwest,6.2,No
2020/03/30,03:00,0.174,0.156,0.239,0.206,0.224,0.125,0.079,northwest,6.2,No
2020/03/30,03:10,0.173,0.155,0.239,0.207,0.222,0.126,0.080,northwest,6.3,No
2020/03/30,03:20,0.174,0.156,0.238,0.207,0.223,0.126,0.080,north-northwest,6.4,No
2020/03/30,03:30,0.174,0.156,0.239,0.207,0.224,0.126,0.079,north-northwest,6.6,No
2020/03/30,03:40,0.173,0.156,0.239,0.207,0.223,0.126,0.080,northwest,7.1,No
2020/03/30,03:50,0.174,0.156,0.239,0.208,0.224,0.126,0.080,north-northwest,7.3,No
2020/03/30,04:00,0.173,0.156,0.239,0.207,0.224,0.126,0.079,north-northwest,7.5,No
2020/03/30,04:10,0.174,0.157,0.238,0.208,0.224,0.127,0.080,north-northwest,7.4,No
2020/03/30,04:20,0.174,0.156,0.238,0.208,0.225,0.125,0.080,northwest,7.3,No
2020/03/30,04:30,0.174,0.156,0.240,0.207,0.225,0.127,0.080,north-northwest,7.3,No
2020/03/30,04:40,0.174,0.156,0.239,0.207,0.223,0.126,0.080,north-northwest,6.0,No
2020/03/30,04:50,0.174,0.156,0.239,0.207,0.224,0.127,0.080,north-northwest,6.1,No
2020/03/30,05:00,0.174,0.157,0.239,0.208,0.225,0.126,0.080,north-northwest,5.6,No
2020/03/30,05:10,0.175,0.156,0.239,0.208,0.224,0.127,0.080,north-northwest,5.4,No
2020/03/30,05:20,0.174,0.156,0.240,0.207,0.224,0.126,0.079,north-northwest,5.6,No
2020/03/30,05:30,0.174,0.158,0.240,0.208,0.225,0.126,0.079,north-northwest,5.3,No
2020/03/30,05:40,0.173,0.157,0.239,0.207,0.225,0.127,0.081,north-northwest,5.0,No
2020/03/30,05:50,0.174,0.155,0.239,0.207,0.225,0.126,0.080,north-northwest,4.5,No
2020/03/30,06:00,0.174,0.156,0.239,0.206,0.225,0.127,0.079,north-northwest,4.4,No
2020/03/30,06:10,0.174,0.156,0.241,0.208,0.225,0.127,0.080,north-northwest,4.4,No
2020/03/30,06:20,0.174,0.157,0.240,0.208,0.224,0.127,0.080,north-northwest,4.2,No
2020/03/30,06:30,0.174,0.155,0.240,0.207,0.225,0.126,0.081,northwest,4.0,No
2020/03/30,06:40,0.175,0.156,0.238,0.208,0.225,0.126,0.080,northwest,3.9,No
2020/03/30,06:50,0.174,0.156,0.240,0.207,0.224,0.126,0.079,northwest,3.6,No
2020/03/30,07:00,0.174,0.156,0.240,0.207,0.225,0.127,0.080,northwest,3.4,No
2020/03/30,07:10,0.175,0.156,0.240,0.207,0.225,0.127,0.080,northwest,3.3,No
2020/03/30,07:20,0.174,0.156,0.239,0.207,0.225,0.127,0.081,northwest,3.2,No
2020/03/30,07:30,0.175,0.156,0.240,0.207,0.225,0.127,0.079,north-northwest,2.8,No
2020/03/30,07:40,0.175,0.157,0.239,0.208,0.226,0.127,0.079,north-northwest,3.0,No
2020/03/30,07:50,0.174,0.156,0.239,0.208,0.225,0.127,0.079,northwest,2.8,No
2020/03/30,08:00,0.175,0.156,0.238,0.207,0.225,0.126,0.079,northwest,3.4,No
2020/03/30,08:10,0.175,0.156,0.240,0.208,0.226,0.126,0.080,north-northwest,3.4,No
2020/03/30,08:20,0.174,0.155,0.239,0.206,0.225,0.127,0.080,north-northwest,2.9,No
2020/03/30,08:30,0.175,0.156,0.238,0.208,0.226,0.127,0.080,north-northwest,2.5,No
2020/03/30,08:40,0.175,0.157,0.240,0.208,0.226,0.127,0.081,north,1.9,No
2020/03/30,08:50,0.174,0.155,0.239,0.208,0.226,0.127,0.080,east-northeast,2.5,No
2020/03/30,09:00,0.175,0.157,0.241,0.208,0.227,0.126,0.080,east-northeast,2.2,No
2020/03/30,09:10,0.173,0.156,0.239,0.208,0.228,0.127,0.080,east-northeast,2.6,No
2020/03/30,09:20,0.174,0.156,0.241,0.210,0.228,0.127,0.081,east-northeast,2.3,No
2020/03/30,09:30,0.173,0.156,0.241,0.209,0.227,0.127,0.080,north-northeast,1.3,No
2020/03/30,09:40,0.175,0.157,0.241,0.209,0.228,0.127,0.080,east-northeast,2.0,No
2020/03/30,09:50,0.175,0.157,0.244,0.211,0.228,0.128,0.080,northeast,1.6,No
2020/03/30,10:00,0.174,0.158,0.244,0.211,0.230,0.128,0.081,northeast,1.6,No
2020/03/30,10:10,0.175,0.157,0.244,0.211,0.229,0.127,0.081,east-northeast,1.9,No
2020/03/30,10:20,0.174,0.157,0.245,0.211,0.230,0.127,0.081,east-northeast,2.6,No
2020/03/30,10:30,0.174,0.158,0.245,0.211,0.230,0.128,0.081,east-northeast,2.4,No
2020/03/30,10:40,0.175,0.157,0.245,0.213,0.231,0.128,0.081,east-northeast,2.0,No
2020/03/30,10:50,0.173,0.157,0.248,0.213,0.232,0.129,0.082,northeast,2.3,No
2020/03/30,11:00,0.174,0.157,0.248,0.215,0.232,0.129,0.082,east,2.2,No
2020/03/30,11:10,0.174,0.156,0.250,0.214,0.234,0.129,0.082,east,2.6,No
2020/03/30,11:20,0.175,0.159,0.249,0.216,0.231,0.130,0.082,east,3.4,No
2020/03/30,11:30,0.176,0.157,0.250,0.215,0.237,0.130,0.082,northeast,3.3,No
2020/03/30,11:40,0.175,0.158,0.251,0.216,0.235,0.132,0.082,east-northeast,2.8,No
2020/03/30,11:50,0.175,0.158,0.251,0.219,0.237,0.131,0.082,northeast,3.5,No
2020/03/30,12:00,0.175,0.157,0.254,0.220,0.237,0.131,0.082,northeast,3.5,No
2020/03/30,12:10,0.175,0.159,0.254,0.222,0.238,0.131,0.083,east-northeast,2.7,No
2020/03/30,12:20,0.175,0.158,0.255,0.221,0.240,0.133,0.082,east-northeast,3.3,No
2020/03/30,12:30,0.176,0.158,0.256,0.221,0.240,0.132,0.083,east,3.7,No
2020/03/30,12:40,0.175,0.158,0.256,0.224,0.243,0.132,0.082,east,3.6,No
2020/03/30,12:50,0.176,0.158,0.258,0.224,0.242,0.133,0.082,east-northeast,2.6,No
2020/03/30,13:00,0.176,0.158,0.257,0.226,0.244,0.133,0.083,east-northeast,2.9,No
2020/03/30,13:10,0.175,0.157,0.256,0.226,0.244,0.133,0.082,east,3.4,No
2020/03/30,13:20,0.176,0.157,0.258,0.227,0.246,0.133,0.082,east-northeast,2.1,No
2020/03/30,13:30,0.175,0.158,0.257,0.227,0.246,0.133,0.082,east-northeast,3.2,No
2020/03/30,13:40,0.176,0.158,0.258,0.229,0.246,0.133,0.082,east-northeast,4.3,No
2020/03/30,13:50,0.175,0.158,0.259,0.229,0.247,0.134,0.083,east,3.2,No
2020/03/30,14:00,0.176,0.158,0.257,0.229,0.247,0.134,0.082,east,3.1,No
2020/03/30,14:10,0.175,0.157,0.258,0.231,0.249,0.134,0.083,east-northeast,3.7,No
2020/03/30,14:20,0.176,0.158,0.258,0.231,0.248,0.133,0.082,east,2.9,No
2020/03/30,14:30,0.175,0.158,0.258,0.234,0.250,0.134,0.082,east-northeast,3.0,No
2020/03/30,14:40,0.174,0.159,0.258,0.232,0.248,0.134,0.083,east-northeast,3.1,No
2020/03/30,14:50,0.176,0.158,0.258,0.234,0.250,0.134,0.082,east,2.8,No
2020/03/30,15:00,0.176,0.158,0.259,0.232,0.249,0.134,0.082,east,2.8,No
2020/03/30,15:10,0.176,0.159,0.258,0.233,0.250,0.135,0.083,east,2.8,No
2020/03/30,15:20,0.175,0.159,0.258,0.235,0.249,0.135,0.082,east,2.3,No
2020/03/30,15:30,0.176,0.159,0.260,0.235,0.251,0.134,0.082,east,2.5,No
2020/03/30,15:40,0.175,0.158,0.260,0.236,0.251,0.135,0.083,east-northeast,2.0,No
2020/03/30,15:50,0.174,0.159,0.260,0.236,0.249,0.135,0.082,east-northeast,2.9,No
2020/03/30,16:00,0.177,0.159,0.260,0.235,0.251,0.135,0.083,east,2.6,No
2020/03/30,16:10,0.176,0.159,0.261,0.234,0.251,0.137,0.082,east-northeast,1.8,No
2020/03/30,16:20,0.176,0.158,0.261,0.236,0.251,0.135,0.083,east,1.4,No
2020/03/30,16:30,0.176,0.158,0.259,0.236,0.252,0.136,0.082,east-southeast,2.2,No
2020/03/30,16:40,0.177,0.158,0.260,0.236,0.250,0.135,0.083,east-southeast,1.7,No
2020/03/30,16:50,0.176,0.160,0.260,0.237,0.252,0.136,0.084,east-southeast,1.9,No
2020/03/30,17:00,0.177,0.159,0.258,0.235,0.251,0.135,0.082,east-southeast,1.8,No
2020/03/30,17:10,0.176,0.158,0.261,0.235,0.252,0.135,0.083,east-southeast,1.5,No
2020/03/30,17:20,0.175,0.159,0.260,0.236,0.252,0.136,0.082,south-southeast,1.6,No
2020/03/30,17:30,0.176,0.159,0.259,0.236,0.251,0.136,0.082,south-southeast,1.3,No
2020/03/30,17:40,0.176,0.158,0.261,0.236,0.251,0.135,0.083,south-southeast,1.3,No
2020/03/30,17:50,0.176,0.158,0.261,0.236,0.250,0.135,0.082,south-southeast,0.9,No
2020/03/30,18:00,0.176,0.159,0.260,0.237,0.250,0.136,0.083,south-southeast,1.2,No
2020/03/30,18:10,0.177,0.158,0.260,0.235,0.251,0.135,0.082,southeast,1.2,No
2020/03/30,18:20,0.176,0.158,0.260,0.236,0.252,0.135,0.083,southeast,1.1,No
2020/03/30,18:30,0.177,0.160,0.259,0.237,0.251,0.135,0.082,south-southeast,0.6,No
2020/03/30,18:40,0.176,0.158,0.261,0.237,0.250,0.135,0.083,-,CALM,No
2020/03/30,18:50,0.175,0.157,0.260,0.237,0.251,0.135,0.084,east,0.9,No
2020/03/30,19:00,0.176,0.159,0.260,0.237,0.251,0.135,0.082,-,CALM,No
2020/03/30,19:10,0.177,0.159,0.261,0.237,0.252,0.135,0.082,southeast,0.6,No
2020/03/30,19:20,0.177,0.158,0.260,0.237,0.252,0.135,0.082,south-southeast,0.8,No
2020/03/30,19:30,0.177,0.159,0.261,0.236,0.252,0.135,0.082,south-southeast,1.4,No
2020/03/30,19:40,0.176,0.159,0.261,0.237,0.250,0.136,0.082,south-southeast,1.9,No
2020/03/30,19:50,0.177,0.159,0.260,0.238,0.252,0.135,0.084,south-southeast,1.5,No
2020/03/30,20:00,0.175,0.158,0.260,0.238,0.252,0.135,0.082,south,1.8,No
2020/03/30,20:10,0.177,0.159,0.261,0.238,0.253,0.136,0.083,south,1.7,No
2020/03/30,20:20,0.176,0.159,0.261,0.237,0.250,0.136,0.083,south,1.6,No
2020/03/30,20:30,0.177,0.159,0.261,0.237,0.251,0.136,0.083,south,2.4,No
2020/03/30,20:40,0.177,0.159,0.261,0.237,0.251,0.135,0.083,south-southwest,2.6,No
2020/03/30,20:50,0.177,0.158,0.262,0.236,0.252,0.135,0.083,south-southwest,2.5,No
2020/03/30,21:00,0.177,0.159,0.260,0.237,0.251,0.135,0.084,south-southwest,2.5,No
2020/03/30,21:10,0.177,0.159,0.261,0.239,0.251,0.136,0.083,south,2.7,No
2020/03/30,21:20,0.177,0.159,0.260,0.237,0.252,0.136,0.083,south-southwest,2.2,No
2020/03/30,21:30,0.178,0.159,0.260,0.238,0.250,0.135,0.082,south-southwest,1.8,No
2020/03/30,21:40,0.177,0.160,0.261,0.238,0.251,0.135,0.082,south-southwest,0.8,No
2020/03/30,21:50,0.177,0.158,0.262,0.238,0.252,0.136,0.083,south-southwest,2.3,No
2020/03/30,22:00,0.178,0.158,0.261,0.239,0.252,0.135,0.083,south-southwest,1.8,No
2020/03/30,22:10,0.177,0.159,0.260,0.237,0.251,0.135,0.083,-,CALM,No
2020/03/30,22:20,0.177,0.159,0.262,0.236,0.251,0.135,0.083,south-southwest,2.6,No
2020/03/30,22:30,0.177,0.159,0.261,0.238,0.252,0.136,0.084,south-southwest,2.2,No
2020/03/30,22:40,0.177,0.159,0.262,0.238,0.252,0.135,0.083,south-southwest,3.2,No
2020/03/30,22:50,0.177,0.158,0.262,0.238,0.251,0.136,0.083,south-southwest,3.0,No
2020/03/30,23:00,0.176,0.160,0.261,0.238,0.252,0.135,0.083,south-southwest,3.2,No
2020/03/30,23:10,0.177,0.159,0.262,0.237,0.253,0.137,0.082,south-southwest,3.5,No
2020/03/30,23:20,0.178,0.159,0.262,0.237,0.252,0.136,0.083,south-southwest,3.2,No
2020/03/30,23:30,0.178,0.159,0.261,0.239,0.251,0.136,0.083,south-southwest,3.5,No
2020/03/30,23:40,0.177,0.159,0.263,0.239,0.252,0.135,0.083,south-southwest,2.7,No
2020/03/30,23:50,0.177,0.160,0.262,0.239,0.252,0.136,0.084,south,3.1,No
